RH
30 32 45 48 56 52 53 57 52 66 76 72 73 79 71 86 96 85 78 67 82 100 100 100 100 100 100 100 100 96 100 98 98 83 92 72 87 81
27 31 32 35 55 59 52 54 54 57 54 64 75 80 70 73 81 91 92 89 70 93 100 100 100 100 100 100 100 100 100 95 89 84 88 53 86 98
16 24 28 32 34 51 63 66 58 60 57 58 67 72 69 90 79 84 84 100 82 73 99 100 100 100 100 100 100 100 100 100 91 73 61 69 93 100
11 16 21 23 32 36 40 58 56 54 52 59 58 71 70 92 74 90 94 90 100 86 83 100 100 100 100 100 100 100 100 100 96 64 78 78 100 69
8 10 14 18 25 33 37 50 52 54 52 62 65 79 65 80 89 91 100 100 100 98 82 100 100 100 100 100 100 100 100 97 96 95 99 88 75 99
7 8 12 12 15 21 34 49 51 61 62 76 92 95 80 70 86 85 100 100 100 98 82 96 100 100 100 100 100 100 100 100 100 100 90 100 100 100
4 5 7 9 12 16 25 39 45 64 68 67 93 100 98 100 94 73 99 100 100 98 99 88 100 100 100 100 100 100 100 100 100 100 100 100 100 100
4 5 5 8 10 15 24 29 41 62 73 85 87 100 91 86 72 50 83 92 94 97 89 85 100 100 100 100 100 100 100 100 100 100 100 100 100 100
5 6 6 8 11 16 22 32 39 40 45 43 47 62 53 38 31 36 43 47 82 82 71 86 100 100 100 100 100 100 100 100 100 100 100 100 100 100
6 6 6 7 9 13 16 16 17 20 27 34 27 18 18 23 40 58 67 80 83 78 81 89 99 100 100 100 100 100 98 100 100 100 100 100 100 89
6 7 7 8 8 8 9 12 10 10 9 10 13 18 31 44 47 49 64 63 85 98 97 93 84 100 100 97 96 92 99 100 100 98 94 89 91 86
7 8 8 8 8 8 9 10 10 11 12 15 26 26 28 39 53 76 82 88 83 98 100 100 97 100 100 100 100 100 100 100 100 100 97 88 94 100
22 24 24 22 20 19 20 24 33 49 61 60 61 61 70 79 93 94 88 94 100 100 100 100 100 99 99 88 92 98 99 95 91 88 92 100 100 100
54 58 55 60 56 66 77 83 87 97 97 95 95 94 76 100 100 100 100 100 100 100 100 100 100 100 90 86 82 84 93 96 100 100 100 100 100 100
100 99 98 93 93 93 91 90 97 100 100 100 100 100 100 100 100 100 100 100 100 100 100 100 100 100 97 86 94 97 92 99 99 100 100 100 100 100
100 100 100 100 100 100 100 100 100 100 100 100 100 100 100 100 100 100 100 100 100 100 98 81 64 44 35 29 36 53 79 99 100 100 100 100 100 100
100 100 100 100 100 100 100 100 100 100 100 100 100 100 100 100 100 100 99 97 100 98 92 68 47 29 25 29 30 32 40 69 84 92 98 100 100 100
95 93 100 100 100 100 100 97 94 93 100 100 100 100 92 81 79 81 76 67 53 38 21 18 22 19 19 20 21 20 26 30 36 51 71 82 100 100
100 100 100 100 100 100 100 100 99 96 82 70 69 73 56 41 40 41 40 35 24 17 17 21 12 5 4 4 5 6 6 8 10 16 25 28 30 33
94 100 100 100 100 96 92 93 94 82 51 40 40 40 41 41 41 40 35 27 23 13 5 4 3 2 2 3 3 4 4 5 6 9 16 23 27 22
100 92 82 84 81 70 55 45 43 45 49 48 43 43 42 38 32 24 17 9 4 4 3 2 2 2 2 2 2 2 4 5 6 8 10 17 23 28
87 85 79 63 51 46 44 45 48 48 48 43 45 42 35 25 17 11 5 5 4 2 3 2 2 2 2 2 2 2 3 4 6 8 10 14 21 29
54 52 50 50 49 49 50 50 47 45 48 46 39 37 27 20 17 5 5 4 3 3 3 2 2 2 2 2 2 2 3 4 7 9 11 16 30 38
Wind_Speed
96 93 88 85 85 82 79 79 76 73 70 69 69 67 64 61 62 60 62 59 58 59 59 58 57 56 59 59 59 58 57 53 52 55 53 52 51 54
104 100 96 91 88 87 83 81 80 78 73 74 72 71 68 65 63 65 64 65 61 64 66 59 54 55 58 60 60 60 64 64 61 57 55 60 57 60
107 105 102 97 91 90 90 86 84 83 80 79 77 74 72 70 67 64 66 67 68 66 65 62 57 55 57 59 60 64 68 70 70 68 68 63 59 62
110 107 104 102 96 95 95 92 91 89 87 83 81 79 78 77 70 71 71 70 72 72 68 71 63 62 64 66 67 69 71 71 73 77 66 62 61 67
106 106 106 104 101 99 97 91 90 90 87 81 81 82 80 80 81 79 76 77 78 77 75 71 69 68 71 69 71 73 76 78 74 73 66 69 72 69
103 105 107 104 102 102 100 96 93 92 91 91 90 88 86 85 85 83 84 81 82 80 77 75 78 76 74 74 72 74 78 83 76 74 74 71 74 77
92 98 102 104 104 103 102 101 98 97 95 95 92 92 90 90 89 89 85 85 84 83 83 78 83 83 75 74 75 76 78 80 76 75 76 74 74 79
81 86 90 95 99 102 102 100 99 98 95 95 94 92 92 91 93 94 89 88 88 90 87 78 85 88 83 81 81 82 86 86 86 86 84 82 84 86
63 71 78 82 86 91 95 98 97 97 97 97 95 94 93 94 93 90 90 91 92 90 86 83 86 89 88 88 86 87 90 90 87 87 87 89 91 92
53 60 64 66 72 79 83 86 87 87 87 86 89 89 91 90 89 89 89 87 87 88 87 81 83 86 94 95 92 94 96 96 97 98 97 98 98 99
43 46 50 56 62 66 68 73 74 75 78 75 81 82 82 84 87 86 86 83 81 83 84 88 87 88 93 94 96 98 100 101 105 107 109 110 109 111
33 37 44 48 54 55 60 63 66 68 70 73 74 77 78 78 76 77 79 81 81 77 83 89 91 92 95 97 101 104 105 107 110 110 112 114 110 106
25 29 34 38 41 46 50 53 55 58 60 64 67 68 69 72 70 73 75 77 78 81 87 95 98 102 104 105 106 110 112 115 116 115 113 110 109 109
21 22 25 28 32 34 38 41 43 45 50 53 55 60 64 64 70 72 77 82 87 92 98 105 107 110 113 116 116 116 117 118 116 116 115 116 117 117
18 20 24 26 30 34 37 39 43 46 50 55 58 62 67 72 76 80 85 90 96 103 108 113 118 121 123 124 126 124 125 123 123 123 122 122 124 123
27 28 31 34 36 39 42 48 52 52 55 60 65 70 75 81 86 91 96 104 108 115 122 127 129 131 128 125 126 127 129 127 127 124 129 128 129 129
35 39 41 44 47 51 55 57 58 63 67 71 76 81 87 91 96 102 109 113 121 127 133 136 137 133 131 130 131 129 127 135 139 141 140 140 142 139
47 48 49 52 56 59 62 67 70 72 75 80 83 88 93 99 105 112 118 125 129 132 130 130 132 133 134 135 136 132 134 136 136 140 140 142 145 150
52 55 60 64 65 66 69 73 77 81 84 87 92 98 95 97 101 107 116 126 130 128 129 135 135 129 120 116 114 110 106 108 110 115 125 130 130 137
61 64 67 70 73 75 77 80 86 89 84 83 85 88 94 98 105 114 125 131 130 128 119 114 109 103 99 95 93 91 89 89 92 95 103 109 112 112
70 72 73 76 77 77 74 73 74 76 81 86 90 93 98 100 105 116 124 120 108 101 96 91 86 81 76 74 74 75 75 76 80 84 87 93 94 93
74 74 72 69 70 70 71 74 77 80 83 88 93 96 96 100 105 112 107 97 91 85 80 74 70 67 62 59 58 60 63 66 71 73 75 78 80 80
64 65 66 69 71 74 76 79 82 83 86 90 92 96 96 97 102 101 88 85 78 74 68 65 64 60 56 52 50 51 53 57 61 64 67 67 69 70
Wind_Direction
250 250 250 252 256 258 258 261 264 267 270 274 275 275 278 280 280 277 279 280 275 270 275 278 279 283 285 282 284 285 285 283 292 294 293 299 294 298
249 250 251 250 252 257 258 260 263 264 267 268 271 272 277 277 277 276 280 278 277 273 271 273 276 280 281 281 281 282 283 283 286 288 291 296 293 295
246 247 249 249 250 253 255 259 261 263 265 266 268 269 273 271 272 276 279 274 279 275 269 267 267 272 276 280 282 283 283 286 285 286 292 289 292 294
243 245 247 249 249 251 254 257 259 261 264 265 266 267 271 271 271 276 277 277 277 278 271 264 263 269 274 276 279 278 281 282 286 289 292 290 293 293
242 244 245 247 249 251 252 254 257 259 262 265 266 266 267 270 274 275 275 275 274 273 274 266 261 265 271 272 275 278 276 281 286 287 289 292 291 296
242 242 243 245 248 249 251 252 255 257 261 263 265 267 268 271 273 273 272 271 271 270 273 263 259 260 264 271 273 274 276 281 280 282 286 289 290 292
244 243 244 245 247 249 251 253 254 258 261 263 265 267 269 270 270 270 269 269 270 271 270 266 258 258 261 266 271 269 274 275 275 278 282 283 288 290
245 245 247 247 247 249 251 254 255 258 261 261 264 266 267 269 268 268 266 266 268 269 269 268 260 260 261 263 268 273 271 273 276 279 281 280 283 287
247 247 247 249 250 250 252 254 257 258 260 262 264 266 267 268 269 269 267 266 265 268 270 266 260 258 261 262 266 271 273 274 275 275 277 279 283 284
244 244 245 247 248 250 252 255 257 259 261 262 263 264 264 265 266 265 267 268 270 272 268 262 260 260 261 263 266 271 270 276 276 276 279 281 283 285
245 244 245 245 247 250 252 253 255 256 258 258 258 259 261 263 263 265 268 270 269 268 266 261 260 261 264 268 270 273 273 274 276 278 280 282 285 286
238 239 241 244 248 249 250 252 254 255 256 258 259 261 263 266 267 266 266 266 266 261 259 261 260 264 266 268 270 272 272 273 275 277 279 282 287 289
234 234 241 244 247 249 251 252 253 256 257 259 261 263 265 265 265 265 265 263 259 259 261 263 265 267 268 268 268 270 272 274 277 277 279 282 282 283
231 233 241 244 246 246 250 252 254 257 261 262 264 267 266 262 264 266 269 271 272 271 269 268 268 268 269 269 272 273 274 274 275 277 278 280 282 283
250 264 266 258 253 254 255 257 261 266 265 264 259 261 265 267 269 272 275 274 274 274 274 273 273 272 271 270 268 269 271 273 275 276 278 279 280 281
273 271 266 268 272 269 267 263 261 264 269 269 270 273 274 274 274 273 273 274 274 273 273 272 273 274 276 279 277 275 274 273 273 272 274 274 275 277
264 262 260 261 261 262 263 265 268 268 266 265 266 268 270 271 272 273 274 274 273 272 272 276 279 283 284 282 281 280 278 274 272 272 272 273 274 275
261 260 266 265 267 269 270 267 267 267 269 272 273 274 276 278 278 279 280 279 279 279 284 286 286 285 283 281 279 277 275 273 271 270 270 269 270 272
263 267 266 265 267 269 268 272 275 275 276 279 279 282 283 283 284 284 283 282 284 288 290 290 288 287 286 283 280 278 274 270 267 266 267 266 267 268
264 266 270 272 272 273 275 277 277 280 283 283 284 286 287 287 287 286 284 285 289 291 289 288 287 285 282 279 276 273 270 266 264 261 260 262 263 265
269 271 273 275 275 277 278 278 281 284 287 289 289 291 291 292 291 289 288 294 295 293 291 291 289 285 281 277 272 268 264 259 256 255 255 256 259 263
270 272 273 274 275 278 280 284 286 287 288 291 293 296 298 300 299 295 299 301 300 299 297 294 294 291 287 281 273 265 260 255 252 251 251 252 254 257
267 269 271 275 279 282 285 287 288 290 292 296 299 304 307 308 305 301 306 307 306 304 303 303 300 295 290 283 275 266 259 252 248 246 247 248 249 250